[[{"header":{"parameterUnit":"m.s-1","parameterCategory":2,"la1":30.2991,"la2":30.254,"lo1":-89.0895,"lo2":-89.0444,"dy":0.0017,"dx":0.0017,"nx":28,"ny":28,"refTime":"2024-11-28T09:00:00:Z","depth":"0","parameterNumber":2,"parameterNumberName":"U-component_of_CURRENTS"},"data":[0,0,0,0,0,0,0,0,0,0,0,0,0,0,0,0,0,0,0,0,0,0,0,0,0,0,0,0,0,0,0,0,0,0,0,0,0,0,0,0,0,0,0,0,0,0,0,0,0,0,0,0,0,0,0,0,0,0,-0.1859,-0.1858,0,-0.1788,-0.1787,-0.1787,-0.1728,-0.1727,-0.1726,-0.1725,-0.1517,-0.1512,-0.1507,0,0,0,0,0,0,0,0,0,0,0,0,0,-0.1848,-0.1849,-0.1859,-0.1858,-0.1857,-0.1788,-0.1787,-0.1786,-0.1728,-0.1727,-0.1726,-0.1725,-0.1518,-0.1512,-0.1507,0,0,0,0,0,0,0,0,0,0,0,0,0,-0.1825,-0.185,-0.1859,-0.1818,-0.1814,-0.1788,-0.1787,-0.1786,-0.1728,-0.1727,-0.1726,-0.1724,-0.152,-0.1513,-0.1506,-0.1485,0,0,-0.1484,-0.1481,0,0,0,0,0,0,0,0,-0.1826,-0.1825,-0.1825,-0.1821,-0.1816,-0.1764,-0.1706,-0.1678,-0.1728,-0.1762,-0.1725,-0.1724,-0.1586,-0.1573,-0.1567,-0.1475,-0.1466,-0.1483,-0.1479,-0.1476,-0.1474,0,0,0,0,0,0,0,-0.1828,-0.1827,-0.1833,-0.1824,-0.1818,-0.177,-0.1766,-0.1701,-0.1681,-0.1759,-0.1754,-0.1744,-0.1583,-0.1575,-0.1561,-0.1463,-0.1483,-0.1477,-0.1472,-0.147,-0.1326,-0.1327,0,0,0,0,0,0,-0.184,-0.183,-0.1835,-0.1831,-0.1816,-0.1771,-0.1767,-0.1783,-0.1684,-0.1669,-0.1745,-0.1741,-0.1588,-0.157,-0.1554,-0.148,-0.1476,-0.1469,-0.1465,-0.1326,-0.1326,-0.1327,0,0,0,0,0,0,-0.184,-0.1842,-0.1838,-0.1825,-0.1821,-0.1773,-0.1791,-0.1782,-0.1779,-0.1675,-0.1656,-0.1751,-0.1586,-0.1564,-0.1504,-0.1472,-0.1466,-0.1459,-0.1325,-0.1326,-0.1327,-0.1358,0,0,0,0,0,0,-0.1841,-0.1844,-0.1858,-0.1827,-0.1822,-0.1833,-0.1792,-0.1782,-0.1773,-0.1768,-0.1673,-0.1653,-0.1583,-0.1516,-0.1497,-0.1462,-0.1453,-0.1325,-0.1326,-0.1327,-0.1356,-0.136,-0.1363,0,0,0,0,0,-0.1841,-0.187,-0.186,-0.1859,-0.1845,-0.1834,-0.1828,-0.1789,-0.1775,-0.1781,-0.1717,-0.1656,-0.1508,-0.1511,-0.1488,-0.145,-0.1324,-0.1325,-0.1326,-0.1355,-0.1359,-0.1363,0,0,0,0,0,0,-0.1864,-0.1866,-0.1854,-0.1879,-0.1861,-0.1823,-0.1822,-0.1804,-0.1763,-0.1754,-0.1662,-0.1638,-0.158,-0.1524,-0.1529,-0.1419,-0.1406,-0.1403,-0.1435,-0.1438,-0.1442,-0.1416,-0.1447,0,0,0,0,0,-0.1879,-0.1899,-0.1887,-0.1897,-0.1901,-0.1867,-0.1858,-0.1838,-0.1797,-0.178,-0.1711,-0.1637,-0.1569,-0.1513,-0.1461,-0.1391,-0.1343,-0.1356,-0.1359,-0.1362,-0.133,-0.1259,-0.1252,-0.1331,-0.1331,-0.1331,0,0,-0.1879,-0.1886,-0.189,-0.1902,-0.1887,-0.1878,-0.186,-0.1858,-0.182,-0.176,-0.1694,-0.1658,-0.1565,-0.1494,-0.1459,-0.1434,-0.1323,-0.1363,-0.1366,-0.1332,-0.1259,-0.1251,-0.1244,-0.1332,-0.1332,-0.1331,0,0,-0.1885,-0.1912,-0.1926,-0.1921,-0.1914,-0.1898,-0.1905,-0.1881,-0.1845,-0.1791,-0.1741,-0.1689,-0.158,-0.1505,-0.1449,-0.1439,-0.1364,-0.1428,-0.1384,-0.1317,-0.1308,-0.1301,-0.1261,-0.1249,-0.1401,-0.1401,-0.1401,0,-0.188,-0.1897,-0.1923,-0.1929,-0.1902,-0.191,-0.1892,-0.1868,-0.1817,-0.1761,-0.1771,-0.1626,-0.1572,-0.145,-0.1449,-0.1438,-0.14,-0.1373,-0.1318,-0.1309,-0.13,-0.126,-0.1246,-0.1403,-0.1403,-0.1402,-0.1402,0,-0.1888,-0.1893,-0.1903,-0.1906,-0.1894,-0.1886,-0.1857,-0.1835,-0.1801,-0.1748,-0.1655,-0.1604,-0.1501,-0.1491,-0.1453,-0.136,-0.1356,-0.1353,-0.1302,-0.1293,-0.1253,-0.1239,-0.1405,-0.1405,-0.1404,-0.1404,0,0,-0.1855,-0.19,-0.1891,-0.187,-0.1874,-0.1853,-0.181,-0.174,-0.1676,-0.1643,-0.1539,-0.1463,-0.1449,-0.1389,-0.1359,-0.1297,-0.1233,-0.1291,-0.1287,-0.1241,-0.1094,-0.11,-0.1085,-0.1215,-0.1212,-0.121,-0.1102,0,-0.1827,-0.1842,-0.1855,-0.1808,-0.1798,-0.1779,-0.172,-0.166,-0.1607,-0.1526,-0.1465,-0.1383,-0.1403,-0.1363,-0.1307,-0.1254,-0.1189,-0.1262,-0.1116,-0.1112,-0.1109,-0.1066,-0.1036,-0.0936,-0.1087,-0.1085,-0.1083,0,-0.1788,-0.1804,-0.1785,-0.1732,-0.1721,-0.1694,-0.1587,-0.1538,-0.1443,-0.1394,-0.1325,-0.1296,-0.1208,-0.1245,-0.1119,-0.1165,-0.1121,-0.1089,-0.1084,-0.1055,-0.1088,-0.0964,-0.0903,-0.0881,-0.1059,-0.1061,-0.1063,0,-0.1709,-0.1714,-0.1694,-0.1683,-0.1659,-0.161,-0.1577,-0.1489,-0.141,-0.1324,-0.1265,-0.1184,-0.1125,-0.1071,-0.103,-0.1059,-0.0903,-0.0935,-0.0894,-0.0896,-0.082,-0.0819,-0.0701,-0.0824,-0.0824,-0.0825,-0.0825,0,-0.1635,-0.159,-0.1666,-0.1639,-0.1555,-0.1565,-0.1444,-0.1395,-0.1326,-0.1198,-0.1203,-0.1099,-0.1074,-0.0996,-0.0981,-0.0891,-0.086,-0.086,-0.085,-0.0837,-0.084,-0.0777,-0.0795,-0.0821,-0.0821,-0.0822,-0.0823,0,-0.1488,-0.1562,-0.151,-0.1521,-0.1512,-0.1441,-0.1365,-0.1263,-0.1251,-0.1098,-0.1069,-0.1004,-0.0919,-0.0911,-0.0811,-0.0804,-0.0725,-0.0715,-0.0724,-0.0716,-0.0685,-0.0707,-0.0595,-0.0577,-0.0648,-0.0647,-0.0647,0,-0.1403,-0.1394,-0.1401,-0.1363,-0.1353,-0.1286,-0.1198,-0.1191,-0.1082,-0.1007,-0.0893,-0.0845,-0.0771,-0.0693,-0.0678,-0.0658,-0.0661,-0.0589,-0.0636,-0.0646,-0.0662,-0.0713,-0.071,-0.056,-0.0559,-0.0557,-0.0557,0,-0.1203,-0.1229,-0.1185,-0.1139,-0.1073,-0.1005,-0.0909,-0.0842,-0.0795,-0.0724,-0.0626,-0.0626,-0.0608,-0.0587,-0.0599,-0.0578,-0.0588,-0.0567,-0.0544,-0.0542,-0.0615,-0.0606,-0.0699,-0.0547,-0.0548,-0.0549,-0.0549,-0.055,-0.1006,-0.0953,-0.0929,-0.0851,-0.0796,-0.0719,-0.0639,-0.057,-0.0461,-0.0377,-0.0405,-0.0418,-0.0497,-0.054,-0.0521,-0.0457,-0.0522,-0.0443,-0.0457,-0.0499,-0.0505,-0.0598,-0.0465,-0.0466,-0.0466,-0.0466,-0.0467,0,-0.0763,-0.0736,-0.0645,-0.0584,-0.0504,-0.0545,-0.0419,-0.0361,-0.025,-0.0219,-0.0216,-0.0285,-0.0328,-0.0384,-0.0345,-0.0339,-0.0362,-0.0334,-0.0372,-0.0365,-0.0391,-0.0411,-0.0299,-0.0299,-0.0299,-0.0299,-0.0299,-0.0299,-0.0649,-0.0516,-0.05,-0.033,-0.0314,-0.0192,-0.0147,-0.0099,-0.007,-0.0012,-0.0045,-0.0151,-0.0186,-0.0236,-0.0227,-0.0238,-0.0254,-0.0284,-0.0294,-0.0296,-0.0308,-0.0318,-0.0338,-0.0213,-0.0213,-0.0256,-0.0257,-0.0257]},{"header":{"parameterUnit":"m.s-1","parameterCategory":2,"la1":30.2991,"la2":30.254,"lo1":-89.0895,"lo2":-89.0444,"dy":0.0017,"dx":0.0017,"nx":28,"ny":28,"refTime":"2024-11-28T09:00:00:Z","depth":"0","parameterNumber":3,"parameterNumberName":"V-component_of_CURRENTS"},"data":[0,0,0,0,0,0,0,0,0,0,0,0,0,0,0,0,0,0,0,0,0,0,0,0,0,0,0,0,0,0,0,0,0,0,0,0,0,0,0,0,0,0,0,0,0,0,0,0,0,0,0,0,0,0,0,0,0,0,0.0886,0.0888,0,0.0997,0.0997,0.0998,0.1037,0.1038,0.1038,0.1038,0.1145,0.1148,0.115,0,0,0,0,0,0,0,0,0,0,0,0,0,0.0807,0.0807,0.0886,0.0888,0.0891,0.0996,0.0997,0.0998,0.1037,0.1038,0.1038,0.1039,0.1144,0.1147,0.115,0,0,0,0,0,0,0,0,0,0,0,0,0,0.0864,0.0807,0.0886,0.0929,0.0934,0.0996,0.0997,0.0998,0.1037,0.1038,0.1038,0.1039,0.1143,0.1147,0.1151,0.1164,0,0,0.1162,0.1164,0,0,0,0,0,0,0,0,0.0861,0.0866,0.092,0.0926,0.0932,0.1011,0.1009,0.1056,0.1037,0.099,0.1038,0.1039,0.1105,0.1112,0.112,0.1169,0.1173,0.1163,0.1165,0.1167,0.1168,0,0,0,0,0,0,0,0.0856,0.0862,0.0922,0.0923,0.093,0.0977,0.0983,0.1018,0.1037,0.0994,0.0999,0.1024,0.1107,0.1116,0.1123,0.1175,0.1163,0.1166,0.1168,0.117,0.1237,0.1237,0,0,0,0,0,0,0.0853,0.0857,0.0918,0.0926,0.0906,0.0978,0.0985,0.0979,0.1037,0.1048,0.1023,0.1025,0.1109,0.1118,0.1127,0.1151,0.1167,0.117,0.1172,0.1238,0.1237,0.1236,0,0,0,0,0,0,0.085,0.0856,0.0914,0.0903,0.0915,0.0979,0.0971,0.0981,0.0995,0.1061,0.107,0.103,0.111,0.1122,0.1161,0.1155,0.1172,0.1175,0.1238,0.1237,0.1237,0.1195,0,0,0,0,0,0,0.0847,0.0853,0.0846,0.0901,0.0915,0.0946,0.0972,0.0983,0.1013,0.1017,0.1069,0.108,0.1111,0.1155,0.1165,0.1161,0.1178,0.1239,0.1238,0.1237,0.1197,0.1193,0.119,0,0,0,0,0,0.0843,0.0828,0.0844,0.0853,0.0901,0.0947,0.0956,0.1,0.1013,0.1014,0.1054,0.1078,0.1156,0.1158,0.117,0.1166,0.1239,0.1238,0.1237,0.1199,0.1194,0.119,0,0,0,0,0,0,0.0798,0.0834,0.0851,0.085,0.0896,0.0956,0.0965,0.0997,0.1028,0.1035,0.1082,0.1095,0.1122,0.115,0.1151,0.1181,0.1197,0.1198,0.1164,0.116,0.1157,0.1144,0.1181,0,0,0,0,0,0.0784,0.0776,0.0831,0.0834,0.0847,0.0904,0.0928,0.0965,0.1008,0.1022,0.106,0.1096,0.1124,0.1148,0.1175,0.1202,0.1227,0.1203,0.1199,0.1196,0.1192,0.1216,0.1214,0.1233,0.1233,0.1233,0,0,0.0764,0.0792,0.0784,0.0824,0.0855,0.0877,0.0916,0.0954,0.0978,0.103,0.1056,0.1086,0.1127,0.1151,0.1165,0.1177,0.1205,0.1194,0.1191,0.1189,0.1214,0.1213,0.1211,0.1232,0.1232,0.1232,0,0,0.0738,0.0744,0.0732,0.0773,0.0834,0.0862,0.0871,0.093,0.0952,0.0996,0.1026,0.1054,0.1108,0.1129,0.1149,0.1142,0.118,0.1148,0.1129,0.1152,0.1151,0.115,0.1189,0.1192,0.1152,0.1151,0.1151,0,0.0722,0.0714,0.0741,0.0765,0.0796,0.0848,0.0862,0.0892,0.0962,0.0983,0.1,0.1064,0.1095,0.1121,0.1114,0.1133,0.1159,0.1144,0.1147,0.1147,0.1147,0.1187,0.119,0.1149,0.115,0.115,0.115,0,0.0694,0.0705,0.0705,0.0735,0.0767,0.079,0.0846,0.0869,0.0903,0.0948,0.0985,0.1027,0.1064,0.1073,0.1096,0.1105,0.1128,0.1136,0.1158,0.1142,0.1186,0.119,0.1146,0.1147,0.1148,0.1148,0,0,0.0623,0.0668,0.0671,0.07,0.0758,0.0789,0.0808,0.0848,0.0873,0.0926,0.095,0.099,0.1016,0.1037,0.1063,0.1084,0.1105,0.1106,0.1109,0.1145,0.1171,0.1165,0.1171,0.1114,0.1115,0.1115,0.1205,0,0.0595,0.0609,0.0645,0.0677,0.069,0.0754,0.0772,0.0828,0.087,0.0904,0.0948,0.0983,0.1002,0.1021,0.1039,0.1089,0.1113,0.108,0.1181,0.1184,0.1181,0.1174,0.1095,0.1167,0.121,0.1211,0.1211,0,0.0562,0.0578,0.0577,0.0659,0.0669,0.0702,0.0751,0.0787,0.0845,0.0877,0.0914,0.0953,0.0987,0.1001,0.1078,0.1058,0.1104,0.1145,0.115,0.116,0.1186,0.1188,0.1174,0.1236,0.1219,0.1218,0.1218,0,0.0499,0.0552,0.054,0.0568,0.064,0.0669,0.0716,0.0779,0.083,0.0863,0.0903,0.0936,0.0981,0.1022,0.1113,0.1093,0.1209,0.1194,0.1236,0.1238,0.1198,0.1194,0.1252,0.1241,0.124,0.124,0.124,0,0.046,0.048,0.0518,0.0529,0.0564,0.0637,0.0697,0.0736,0.0809,0.0888,0.0891,0.0959,0.099,0.1069,0.1116,0.1204,0.1217,0.1232,0.1255,0.1182,0.1177,0.125,0.1281,0.1244,0.1243,0.1242,0.1241,0,0.0421,0.0422,0.045,0.0508,0.054,0.0576,0.0723,0.0785,0.0824,0.092,0.0935,0.0996,0.1084,0.1136,0.1226,0.1232,0.132,0.1333,0.1253,0.1262,0.1306,0.1336,0.1392,0.1446,0.1357,0.1358,0.1358,0,0.0413,0.0394,0.044,0.0465,0.0506,0.059,0.0672,0.0774,0.0865,0.0977,0.1035,0.1112,0.1186,0.1288,0.1272,0.1318,0.1395,0.1311,0.1238,0.1299,0.1351,0.1351,0.1394,0.1181,0.1179,0.1178,0.1178,0,0.0409,0.0397,0.0417,0.0459,0.0538,0.0652,0.0788,0.0852,0.0988,0.1077,0.1212,0.1259,0.1275,0.126,0.1271,0.1295,0.131,0.1291,0.1369,0.1224,0.1214,0.128,0.1155,0.1169,0.117,0.117,0.1171,0.1171,0.0422,0.0417,0.0426,0.0493,0.0573,0.0716,0.0826,0.0934,0.1083,0.1194,0.1331,0.1351,0.1261,0.1219,0.1246,0.1234,0.1268,0.124,0.1279,0.128,0.13,0.1164,0.1192,0.1193,0.1193,0.1194,0.1195,0,0.0437,0.0443,0.0481,0.0564,0.0646,0.07,0.0909,0.0992,0.1119,0.1189,0.1314,0.1307,0.1263,0.1199,0.1167,0.1201,0.1198,0.128,0.1258,0.1311,0.1194,0.1154,0.1157,0.1157,0.1157,0.1157,0.1156,0.1156,0.0421,0.0453,0.0472,0.0616,0.0662,0.0833,0.093,0.1015,0.108,0.117,0.1164,0.1186,0.1205,0.119,0.1259,0.128,0.1386,0.1333,0.148,0.1381,0.138,0.1379,0.1349,0.1393,0.1393,0.1541,0.1542,0.1544]}],[{"header":{"parameterUnit":"m.s-1","parameterCategory":2,"la1":30.2991,"la2":30.254,"lo1":-89.0895,"lo2":-89.0444,"dy":0.0017,"dx":0.0017,"nx":28,"ny":28,"refTime":"2024-11-28T09:00:00:Z","depth":"2","parameterNumber":2,"parameterNumberName":"U-component_of_CURRENTS"},"data":[0,0,0,0,0,0,0,0,0,0,0,0,0,0,0,0,0,0,0,0,0,0,0,0,0,0,0,0,0,0,0,0,0,0,0,0,0,0,0,0,0,0,0,0,0,0,0,0,0,0,0,0,0,0,0,0,0,0,-0.2204,-0.2208,0,-0.2424,-0.2425,-0.2426,-0.245,-0.2449,-0.2448,-0.2448,-0.2394,-0.2393,-0.2393,0,0,0,0,0,0,0,0,0,0,0,0,0,-0.2012,-0.2012,-0.2204,-0.2208,-0.2212,-0.2423,-0.2425,-0.2426,-0.245,-0.2449,-0.2448,-0.2447,-0.2394,-0.2393,-0.2392,0,0,0,0,0,0,0,0,0,0,0,0,0,-0.2133,-0.2013,-0.2203,-0.2262,-0.227,-0.2423,-0.2425,-0.2427,-0.245,-0.2449,-0.2448,-0.2447,-0.2395,-0.2393,-0.2392,-0.2406,0,0,-0.2389,-0.2388,0,0,0,0,0,0,0,0,-0.2126,-0.2138,-0.2249,-0.2258,-0.2268,-0.2423,-0.2339,-0.2412,-0.245,-0.2364,-0.2448,-0.2446,-0.239,-0.2389,-0.2413,-0.2404,-0.2401,-0.2389,-0.2388,-0.2388,-0.2387,0,0,0,0,0,0,0,-0.2117,-0.213,-0.2274,-0.2254,-0.2266,-0.235,-0.2362,-0.2354,-0.2362,-0.2371,-0.2378,-0.2429,-0.2391,-0.2414,-0.2411,-0.2401,-0.2389,-0.2388,-0.2387,-0.2387,-0.239,-0.2391,0,0,0,0,0,0,-0.2114,-0.2121,-0.2267,-0.2282,-0.2212,-0.2354,-0.2367,-0.2361,-0.2368,-0.2376,-0.243,-0.243,-0.2417,-0.2413,-0.2409,-0.231,-0.2388,-0.2386,-0.2386,-0.2389,-0.239,-0.2391,0,0,0,0,0,0,-0.2108,-0.2122,-0.2259,-0.2224,-0.2249,-0.2359,-0.2351,-0.2366,-0.2373,-0.2419,-0.2417,-0.2422,-0.2416,-0.2411,-0.2436,-0.2312,-0.2386,-0.2385,-0.2388,-0.239,-0.2391,-0.2184,0,0,0,0,0,0,-0.21,-0.2117,-0.2128,-0.2221,-0.2251,-0.2338,-0.2355,-0.2372,-0.2416,-0.2416,-0.2412,-0.2408,-0.2415,-0.2438,-0.2435,-0.2311,-0.2384,-0.2387,-0.2389,-0.239,-0.2189,-0.2178,-0.2167,0,0,0,0,0,-0.2091,-0.2121,-0.2125,-0.2147,-0.2254,-0.234,-0.236,-0.2427,-0.2416,-0.2423,-0.2452,-0.2407,-0.2443,-0.244,-0.2435,-0.2307,-0.2387,-0.2388,-0.239,-0.2194,-0.218,-0.2168,0,0,0,0,0,0,-0.207,-0.213,-0.2136,-0.2187,-0.2251,-0.235,-0.2394,-0.2414,-0.2443,-0.2439,-0.244,-0.244,-0.2389,-0.2431,-0.2427,-0.233,-0.2396,-0.2397,-0.2249,-0.2236,-0.2225,-0.2191,-0.2383,0,0,0,0,0,-0.2065,-0.207,-0.2156,-0.2191,-0.222,-0.2289,-0.2338,-0.2373,-0.2422,-0.2433,-0.2436,-0.244,-0.2399,-0.2389,-0.2387,-0.2359,-0.2358,-0.2279,-0.2268,-0.2257,-0.2238,-0.2185,-0.2163,-0.2397,-0.2397,-0.2397,0,0,-0.2064,-0.2108,-0.211,-0.2185,-0.2232,-0.227,-0.2308,-0.2374,-0.2386,-0.2419,-0.2422,-0.2394,-0.2391,-0.2341,-0.232,-0.2354,-0.2192,-0.226,-0.2249,-0.2236,-0.2184,-0.216,-0.2138,-0.2398,-0.2398,-0.2398,0,0,-0.2081,-0.2095,-0.2108,-0.2153,-0.2241,-0.2274,-0.2278,-0.2355,-0.2362,-0.2393,-0.2371,-0.2302,-0.2318,-0.2249,-0.222,-0.2165,-0.2128,-0.215,-0.2052,-0.1998,-0.1976,-0.1957,-0.19,-0.1878,-0.215,-0.2149,-0.2149,0,-0.2097,-0.211,-0.2135,-0.2174,-0.2217,-0.2254,-0.2284,-0.23,-0.2374,-0.2354,-0.2383,-0.2278,-0.2258,-0.2107,-0.208,-0.2114,-0.2103,-0.2076,-0.1972,-0.1953,-0.1937,-0.1885,-0.1862,-0.2139,-0.214,-0.2141,-0.2142,0,-0.2107,-0.214,-0.2158,-0.2179,-0.2214,-0.2258,-0.2286,-0.2278,-0.2278,-0.2288,-0.2176,-0.2144,-0.2065,-0.2017,-0.2024,-0.1853,-0.1887,-0.1944,-0.1976,-0.1898,-0.1852,-0.1831,-0.2125,-0.2129,-0.2132,-0.2134,0,0,-0.2098,-0.2154,-0.216,-0.2167,-0.2225,-0.2242,-0.2226,-0.2215,-0.2138,-0.2154,-0.205,-0.1934,-0.1872,-0.1838,-0.1774,-0.1714,-0.1556,-0.177,-0.1772,-0.1661,-0.1428,-0.1472,-0.1455,-0.1589,-0.1585,-0.1582,-0.143,0,-0.2109,-0.2142,-0.2182,-0.2199,-0.2207,-0.2222,-0.2186,-0.2163,-0.2117,-0.2026,-0.1932,-0.1822,-0.1815,-0.1715,-0.164,-0.1598,-0.15,-0.1592,-0.1569,-0.1567,-0.1571,-0.1432,-0.133,-0.1188,-0.141,-0.1407,-0.1405,0,-0.211,-0.2125,-0.2139,-0.2155,-0.2157,-0.2154,-0.2043,-0.2036,-0.1916,-0.1868,-0.1727,-0.1673,-0.1519,-0.1549,-0.1393,-0.1458,-0.1404,-0.1382,-0.1378,-0.1477,-0.1574,-0.1316,-0.1144,-0.1371,-0.1374,-0.1377,-0.1379,0,-0.2037,-0.2103,-0.2093,-0.2108,-0.2115,-0.2086,-0.2071,-0.1962,-0.1908,-0.1745,-0.1668,-0.1507,-0.142,-0.1344,-0.1305,-0.1336,-0.118,-0.1233,-0.1198,-0.1202,-0.1141,-0.1146,-0.1079,-0.108,-0.108,-0.108,-0.1081,0,-0.203,-0.2036,-0.2043,-0.2038,-0.1994,-0.201,-0.1924,-0.1861,-0.1732,-0.1642,-0.1565,-0.1462,-0.1372,-0.1295,-0.1254,-0.1173,-0.1137,-0.113,-0.1147,-0.1072,-0.1073,-0.1282,-0.1308,-0.1075,-0.1076,-0.1077,-0.1078,0,-0.1982,-0.1993,-0.1986,-0.197,-0.1971,-0.1922,-0.1898,-0.1821,-0.1697,-0.1561,-0.1514,-0.1415,-0.1367,-0.128,-0.1171,-0.1113,-0.1038,-0.1005,-0.0927,-0.0937,-0.1096,-0.1114,-0.0924,-0.0923,-0.0923,-0.0923,-0.0923,0,-0.1959,-0.1951,-0.1937,-0.1912,-0.1919,-0.1878,-0.1867,-0.1799,-0.1719,-0.1558,-0.15,-0.1409,-0.1358,-0.1234,-0.1113,-0.0991,-0.1051,-0.0821,-0.0852,-0.1034,-0.107,-0.1088,-0.1106,-0.0668,-0.0666,-0.0664,-0.0663,0,-0.1921,-0.1912,-0.1888,-0.1861,-0.1848,-0.1864,-0.1829,-0.1767,-0.1673,-0.1583,-0.1507,-0.146,-0.1301,-0.1158,-0.0981,-0.0917,-0.0845,-0.0787,-0.0937,-0.0769,-0.0793,-0.0831,-0.0855,-0.0647,-0.0648,-0.065,-0.065,-0.0651,-0.1858,-0.1849,-0.182,-0.1789,-0.1806,-0.1834,-0.177,-0.1759,-0.1702,-0.1464,-0.1506,-0.1306,-0.1168,-0.0875,-0.0809,-0.0705,-0.0779,-0.0691,-0.0695,-0.0701,-0.0744,-0.0772,-0.0627,-0.0628,-0.0629,-0.063,-0.0631,0,-0.1709,-0.1765,-0.1761,-0.1714,-0.1682,-0.176,-0.1726,-0.1623,-0.1551,-0.1386,-0.1267,-0.0988,-0.0843,-0.0719,-0.0512,-0.047,-0.0442,-0.0475,-0.0423,-0.0439,-0.0453,-0.0483,-0.0296,-0.0295,-0.0295,-0.0294,0,0,-0.1626,-0.1592,-0.1627,-0.1572,-0.1572,-0.1525,-0.1481,-0.1376,-0.1212,-0.107,-0.0853,-0.0719,-0.0646,-0.0431,-0.0416,-0.0323,-0.038,-0.0307,-0.0572,-0.0525,-0.0539,-0.0573,-0.0637,0,0,0,0,0]},{"header":{"parameterUnit":"m.s-1","parameterCategory":2,"la1":30.2991,"la2":30.254,"lo1":-89.0895,"lo2":-89.0444,"dy":0.0017,"dx":0.0017,"nx":28,"ny":28,"refTime":"2024-11-28T09:00:00:Z","depth":"2","parameterNumber":3,"parameterNumberName":"V-component_of_CURRENTS"},"data":[0,0,0,0,0,0,0,0,0,0,0,0,0,0,0,0,0,0,0,0,0,0,0,0,0,0,0,0,0,0,0,0,0,0,0,0,0,0,0,0,0,0,0,0,0,0,0,0,0,0,0,0,0,0,0,0,0,0,-0.0711,-0.0716,0,-0.0801,-0.0798,-0.0796,-0.0596,-0.0594,-0.0591,-0.0589,-0.0333,-0.0328,-0.0324,0,0,0,0,0,0,0,0,0,0,0,0,0,-0.0437,-0.0439,-0.0711,-0.0716,-0.0721,-0.0801,-0.0798,-0.0795,-0.0597,-0.0594,-0.0591,-0.0588,-0.0334,-0.0329,-0.0323,0,0,0,0,0,0,0,0,0,0,0,0,0,-0.0503,-0.044,-0.071,-0.0664,-0.0664,-0.0802,-0.0798,-0.0794,-0.0597,-0.0594,-0.059,-0.0587,-0.0336,-0.0329,-0.0322,-0.0351,0,0,-0.0301,-0.0298,0,0,0,0,0,0,0,0,-0.0499,-0.0507,-0.0666,-0.0668,-0.0669,-0.0722,-0.0611,-0.0644,-0.0598,-0.0576,-0.0589,-0.0585,-0.0463,-0.0445,-0.0412,-0.0339,-0.0328,-0.0301,-0.0296,-0.0294,-0.0292,0,0,0,0,0,0,0,-0.0494,-0.0503,-0.0701,-0.0673,-0.0675,-0.0667,-0.0666,-0.0614,-0.0497,-0.0578,-0.0574,-0.0656,-0.0454,-0.0419,-0.0404,-0.0324,-0.0301,-0.0295,-0.029,-0.0288,-0.0015,-0.0012,0,0,0,0,0,0,-0.0573,-0.0499,-0.07,-0.0709,-0.0623,-0.0678,-0.0675,-0.0672,-0.0505,-0.0492,-0.0659,-0.0647,-0.0433,-0.0412,-0.0394,-0.0171,-0.0294,-0.0287,-0.0283,-0.0018,-0.0014,-0.0011,0,0,0,0,0,0,-0.0565,-0.0586,-0.0697,-0.0646,-0.0665,-0.069,-0.0687,-0.0677,-0.0542,-0.058,-0.0548,-0.0529,-0.0429,-0.0404,-0.0283,-0.0168,-0.0284,-0.0278,-0.0021,-0.0017,-0.0012,0.0118,0,0,0,0,0,0,-0.0554,-0.058,-0.0565,-0.0649,-0.0672,-0.0715,-0.0695,-0.0683,-0.0628,-0.0607,-0.0461,-0.0439,-0.0424,-0.0294,-0.0276,-0.0161,-0.0272,-0.0025,-0.0019,-0.0014,0.011,0.0126,0.0141,0,0,0,0,0,-0.0543,-0.0525,-0.056,-0.0587,-0.0659,-0.0719,-0.0719,-0.0702,-0.0624,-0.0555,-0.0468,-0.0438,-0.0243,-0.0287,-0.0267,-0.0146,-0.0028,-0.0021,-0.0014,0.0103,0.0123,0.014,0,0,0,0,0,0,-0.0391,-0.0513,-0.0549,-0.0567,-0.0632,-0.07,-0.0675,-0.0644,-0.0518,-0.0466,-0.0413,-0.0387,-0.022,-0.0222,-0.0271,-0.0054,-0.0124,-0.0113,-0.0042,-0.0022,-0.0007,-0.004,-0.0266,0,0,0,0,0,-0.0378,-0.0448,-0.0514,-0.0585,-0.0554,-0.0585,-0.0594,-0.0583,-0.0545,-0.0476,-0.0379,-0.0285,-0.0197,-0.0139,-0.0063,0.0032,0.0005,0.0125,0.0141,0.0154,0.014,0.0143,0.0156,0.0012,0.0012,0.0012,0,0,-0.0365,-0.0478,-0.0505,-0.0572,-0.059,-0.0562,-0.0559,-0.0555,-0.0517,-0.0477,-0.0296,-0.0205,-0.0154,-0.0027,0.0046,-0.0003,0.0195,0.0163,0.0174,0.0152,0.0151,0.0165,0.0177,0.0017,0.0016,0.0015,0,0,-0.0425,-0.0421,-0.0451,-0.0492,-0.0569,-0.054,-0.0505,-0.0462,-0.0372,-0.0274,-0.0203,-0.0062,0.007,0.0127,0.0165,0.0303,0.0293,0.0362,0.0403,0.0408,0.0419,0.0428,0.0465,0.0476,0.035,0.035,0.035,0,-0.0451,-0.0463,-0.0475,-0.0524,-0.0549,-0.0494,-0.0455,-0.0387,-0.0324,-0.0253,-0.0193,0.0058,0.0134,0.026,0.0319,0.0346,0.0339,0.0332,0.0426,0.0434,0.044,0.0476,0.0486,0.0357,0.0356,0.0356,0.0355,0,-0.0468,-0.0505,-0.0517,-0.0544,-0.0523,-0.0517,-0.0437,-0.0314,-0.0173,-0.0134,0.0081,0.019,0.032,0.04,0.0406,0.0524,0.0507,0.0461,0.0371,0.0462,0.0495,0.0504,0.0367,0.0365,0.0363,0.0361,0,0,-0.0573,-0.0526,-0.0558,-0.0542,-0.052,-0.0497,-0.0376,-0.0244,-0.0125,0.0013,0.0152,0.0348,0.0435,0.048,0.0554,0.0576,0.0667,0.0543,0.054,0.0569,0.07,0.0535,0.0527,0.0627,0.0628,0.0629,0.0722,0,-0.0615,-0.063,-0.0591,-0.0572,-0.051,-0.0424,-0.0323,-0.0223,-0.006,0.0101,0.0234,0.0394,0.0451,0.0553,0.0595,0.0627,0.0686,0.0647,0.0615,0.0615,0.0445,0.0529,0.0516,0.0581,0.073,0.0731,0.0732,0,-0.0672,-0.067,-0.0597,-0.0531,-0.0472,-0.0409,-0.0182,-0.0118,0.0067,0.0189,0.0347,0.0442,0.0554,0.0583,0.0678,0.0644,0.0698,0.0723,0.0725,0.0514,0.0461,0.0505,0.059,0.0745,0.0744,0.0743,0.0742,0,-0.0726,-0.0708,-0.0612,-0.0615,-0.0474,-0.0368,-0.0249,-0.0067,0.0022,0.023,0.0322,0.0473,0.0542,0.061,0.0668,0.0675,0.0733,0.0735,0.0662,0.0653,0.0601,0.0582,0.0825,0.0825,0.0825,0.0824,0.0824,0,-0.0838,-0.0812,-0.0604,-0.058,-0.0459,-0.0357,-0.0209,-0.0061,0.0122,0.0205,0.0357,0.0426,0.054,0.0583,0.066,0.0652,0.0722,0.0677,0.0654,0.0651,0.0636,0.0724,0.0711,0.0828,0.0827,0.0826,0.0826,0,-0.0998,-0.0868,-0.0772,-0.0546,-0.0499,-0.0406,-0.0245,-0.0157,0.0053,0.0166,0.0216,0.036,0.0387,0.0502,0.0584,0.0599,0.0638,0.0643,0.0639,0.0609,0.0583,0.0576,0.0577,0.0572,0.0567,0.0564,0.056,0,-0.1066,-0.1034,-0.0791,-0.0728,-0.0623,-0.0504,-0.0464,-0.0237,-0.0146,0.0091,0.012,0.0213,0.0228,0.0278,0.0365,0.0467,0.0532,0.0466,0.0461,0.0574,0.0553,0.0553,0.0553,0.0509,0.0505,0.0503,0.05,0,-0.1221,-0.11,-0.099,-0.0868,-0.077,-0.0724,-0.0592,-0.0517,-0.0278,-0.0175,-0.0088,-0.0055,0.0051,0.0076,0.0206,0.0267,0.0431,0.0402,0.0541,0.0513,0.0499,0.048,0.0485,0.0476,0.0478,0.048,0.0482,0.0482,-0.131,-0.128,-0.1113,-0.1011,-0.095,-0.0891,-0.082,-0.0695,-0.0599,-0.0357,-0.0377,-0.0298,-0.0179,-0.0061,0.0068,0.0238,0.0241,0.027,0.0285,0.0301,0.0215,0.0186,0.0095,0.0096,0.0096,0.0096,0.0096,0,-0.138,-0.1358,-0.1289,-0.1131,-0.1118,-0.1029,-0.09,-0.0828,-0.0729,-0.0571,-0.0524,-0.0465,-0.0388,-0.0162,0.0073,0.0135,0.025,0.0145,0.0295,0.0313,0.0331,0.0255,0.0143,0.0144,0.0145,0.0146,0,0,-0.1401,-0.1377,-0.1338,-0.1322,-0.1245,-0.1189,-0.1095,-0.0964,-0.0816,-0.0695,-0.0582,-0.0619,-0.0389,-0.0259,-0.0115,0.0052,0.0176,0.0073,0.0013,0.019,0.0209,0.0361,0.0255,0,0,0,0,0]}],[{"header":{"parameterUnit":"m.s-1","parameterCategory":2,"la1":30.2991,"la2":30.254,"lo1":-89.0895,"lo2":-89.0444,"dy":0.0017,"dx":0.0017,"nx":28,"ny":28,"refTime":"2024-11-28T09:00:00:Z","depth":"4","parameterNumber":2,"parameterNumberName":"U-component_of_CURRENTS"},"data":[0,0,0,0,0,0,0,0,0,0,0,0,0,0,0,0,0,0,0,0,0,0,0,0,0,0,0,0,0,0,0,0,0,0,0,0,0,0,0,0,0,0,0,0,0,0,0,0,0,0,0,0,0,0,0,0,0,0,-0.0815,-0.0816,0,-0.0855,-0.0855,-0.0855,-0.0865,-0.0865,-0.0865,-0.0865,-0.0949,-0.0951,-0.0954,0,0,0,0,0,0,0,0,0,0,0,0,0,-0.0766,-0.0767,-0.0815,-0.0816,-0.0816,-0.0855,-0.0855,-0.0856,-0.0865,-0.0865,-0.0865,-0.0865,-0.0948,-0.0951,-0.0954,0,0,0,0,0,0,0,0,0,0,0,0,0,-0.0794,-0.0767,-0.0815,-0.0826,-0.0828,-0.0855,-0.0855,-0.0856,-0.0866,-0.0865,-0.0865,-0.0865,-0.0947,-0.0951,-0.0954,-0.0982,0,0,-0.0965,-0.0967,0,0,0,0,0,0,0,0,-0.0792,-0.0796,-0.0824,-0.0826,-0.0827,-0.0856,-0.0869,-0.09,-0.0866,-0.085,-0.0865,-0.0865,-0.0923,-0.0928,-0.0934,-0.0986,-0.0989,-0.0966,-0.0968,-0.0969,-0.097,0,0,0,0,0,0,0,-0.079,-0.0794,-0.083,-0.0825,-0.0827,-0.0836,-0.0839,-0.0875,-0.0888,-0.0852,-0.0853,-0.0859,-0.0924,-0.0931,-0.0937,-0.099,-0.0965,-0.0969,-0.0971,-0.0972,-0.1113,-0.1115,0,0,0,0,0,0,-0.0787,-0.0792,-0.0829,-0.0831,-0.081,-0.0837,-0.0841,-0.0846,-0.0886,-0.0892,-0.0859,-0.0859,-0.0925,-0.0932,-0.094,-0.1007,-0.0969,-0.0973,-0.0975,-0.1111,-0.1113,-0.1115,0,0,0,0,0,0,-0.0785,-0.079,-0.0827,-0.0813,-0.0819,-0.0838,-0.0844,-0.0847,-0.0866,-0.0891,-0.0898,-0.0876,-0.0925,-0.0935,-0.0986,-0.1009,-0.0974,-0.0978,-0.111,-0.1112,-0.1114,-0.1121,0,0,0,0,0,0,-0.0784,-0.0789,-0.0799,-0.0813,-0.0819,-0.0847,-0.0845,-0.0848,-0.087,-0.0871,-0.0909,-0.0915,-0.0925,-0.098,-0.0989,-0.1013,-0.098,-0.1108,-0.1111,-0.1114,-0.1118,-0.1123,-0.1127,0,0,0,0,0,-0.0782,-0.079,-0.0799,-0.0804,-0.083,-0.0848,-0.0852,-0.0864,-0.0871,-0.0881,-0.0912,-0.0915,-0.1005,-0.0984,-0.0995,-0.102,-0.1106,-0.111,-0.1113,-0.1117,-0.1122,-0.1127,0,0,0,0,0,0,-0.0773,-0.0792,-0.0802,-0.0816,-0.0835,-0.085,-0.0859,-0.0874,-0.0906,-0.0915,-0.0936,-0.0945,-0.1,-0.1014,-0.099,-0.1071,-0.1057,-0.1062,-0.1056,-0.1061,-0.1065,-0.1048,-0.0983,0,0,0,0,0,-0.0777,-0.079,-0.0809,-0.0823,-0.0829,-0.085,-0.0862,-0.0877,-0.0903,-0.0916,-0.0944,-0.0981,-0.1022,-0.1043,-0.1079,-0.1123,-0.1106,-0.1148,-0.1152,-0.1155,-0.115,-0.1186,-0.1193,-0.1127,-0.1127,-0.1127,0,0,-0.0777,-0.0792,-0.0799,-0.0824,-0.0835,-0.0853,-0.0856,-0.088,-0.0906,-0.0923,-0.0968,-0.1001,-0.1039,-0.1087,-0.1113,-0.1101,-0.1152,-0.116,-0.1162,-0.1155,-0.1191,-0.1197,-0.1202,-0.1129,-0.1129,-0.1128,0,0,-0.0782,-0.0797,-0.0807,-0.0823,-0.085,-0.0867,-0.0877,-0.0905,-0.0924,-0.0979,-0.0996,-0.1038,-0.1105,-0.1123,-0.1145,-0.1196,-0.1178,-0.1219,-0.1221,-0.1257,-0.1262,-0.1267,-0.1187,-0.1184,-0.1216,-0.1216,-0.1216,0,-0.0784,-0.0803,-0.0814,-0.0829,-0.0847,-0.0873,-0.0894,-0.0917,-0.0964,-0.0979,-0.0998,-0.1087,-0.1119,-0.1163,-0.1183,-0.1203,-0.1189,-0.1195,-0.126,-0.1265,-0.1269,-0.1187,-0.1184,-0.1217,-0.1216,-0.1216,-0.1216,0,-0.079,-0.0815,-0.082,-0.085,-0.0871,-0.0894,-0.0925,-0.0954,-0.0991,-0.1011,-0.1072,-0.1119,-0.1162,-0.1188,-0.1206,-0.1254,-0.1216,-0.1263,-0.124,-0.1276,-0.1187,-0.1183,-0.1218,-0.1217,-0.1217,-0.1217,0,0,-0.0778,-0.0818,-0.0825,-0.0842,-0.0888,-0.0902,-0.0945,-0.0979,-0.1002,-0.1055,-0.1082,-0.1159,-0.1172,-0.1198,-0.1226,-0.126,-0.1261,-0.1278,-0.1279,-0.1181,-0.1261,-0.1186,-0.1174,-0.1335,-0.1336,-0.1337,-0.116,0,-0.0786,-0.0814,-0.0841,-0.088,-0.0893,-0.0931,-0.0967,-0.1002,-0.1041,-0.107,-0.1109,-0.1155,-0.1179,-0.1211,-0.1246,-0.1274,-0.1265,-0.1298,-0.1256,-0.1252,-0.117,-0.1174,-0.1341,-0.1158,-0.1157,-0.1157,-0.1156,0,-0.0783,-0.0807,-0.084,-0.0891,-0.0901,-0.0933,-0.0984,-0.1023,-0.106,-0.1092,-0.1126,-0.115,-0.118,-0.1223,-0.1238,-0.1264,-0.1256,-0.1267,-0.1262,-0.1192,-0.1174,-0.1134,-0.115,-0.1151,-0.1151,-0.1151,-0.1152,0,-0.0754,-0.0808,-0.0836,-0.0851,-0.0909,-0.0937,-0.0978,-0.1025,-0.1054,-0.11,-0.112,-0.1151,-0.1176,-0.1201,-0.1191,-0.1234,-0.1187,-0.1246,-0.114,-0.1129,-0.1243,-0.1242,-0.1252,-0.1252,-0.1252,-0.1253,-0.1253,0,-0.0742,-0.0768,-0.0826,-0.0836,-0.0875,-0.0926,-0.0972,-0.1013,-0.1065,-0.1081,-0.1126,-0.1128,-0.1193,-0.1163,-0.1162,-0.1102,-0.1149,-0.1117,-0.11,-0.1239,-0.124,-0.1235,-0.1236,-0.1246,-0.1248,-0.1249,-0.125,0,-0.0702,-0.0741,-0.0769,-0.0834,-0.0857,-0.0883,-0.0964,-0.0988,-0.1054,-0.1076,-0.109,-0.1109,-0.1079,-0.1068,-0.1072,-0.105,-0.1014,-0.0977,-0.102,-0.1012,-0.0923,-0.0926,-0.0845,-0.0842,-0.0839,-0.0836,-0.0834,0,-0.068,-0.0692,-0.0753,-0.0765,-0.0797,-0.0852,-0.0885,-0.0971,-0.0996,-0.1043,-0.1034,-0.1019,-0.1018,-0.0888,-0.0928,-0.0854,-0.0879,-0.0816,-0.0974,-0.09,-0.0892,-0.09,-0.0907,-0.0829,-0.0828,-0.0827,-0.0826,0,-0.0639,-0.0665,-0.0689,-0.0718,-0.075,-0.0782,-0.084,-0.0853,-0.0937,-0.0995,-0.0947,-0.0914,-0.0859,-0.0829,-0.0762,-0.0736,-0.085,-0.0786,-0.0794,-0.0942,-0.088,-0.0876,-0.0887,-0.0816,-0.0817,-0.0818,-0.0819,0,-0.061,-0.0615,-0.0648,-0.0669,-0.0691,-0.0697,-0.0744,-0.0767,-0.0802,-0.0871,-0.0834,-0.0816,-0.083,-0.0761,-0.07,-0.0662,-0.0701,-0.0711,-0.0725,-0.0737,-0.0798,-0.0709,-0.056,0,0,0,0,0,-0.0581,-0.0585,-0.0598,-0.0602,-0.0612,-0.0627,-0.07,-0.0751,-0.083,-0.0772,-0.0812,-0.0752,-0.0692,-0.0672,-0.0618,-0.068,-0.0708,-0.0617,-0.073,-0.0756,-0.0769,-0.0859,0,0,0,0,0,0,-0.0563,-0.0575,-0.0584,-0.0539,-0.0517,-0.0528,-0.0567,-0.0624,-0.061,-0.0682,-0.0638,-0.0695,-0.0631,-0.0682,-0.0585,-0.0587,-0.0646,-0.0618,-0.0616,-0.0749,-0.0761,-0.0771,-0.0867,0,0,0,0,0]},{"header":{"parameterUnit":"m.s-1","parameterCategory":2,"la1":30.2991,"la2":30.254,"lo1":-89.0895,"lo2":-89.0444,"dy":0.0017,"dx":0.0017,"nx":28,"ny":28,"refTime":"2024-11-28T09:00:00:Z","depth":"4","parameterNumber":3,"parameterNumberName":"V-component_of_CURRENTS"},"data":[0,0,0,0,0,0,0,0,0,0,0,0,0,0,0,0,0,0,0,0,0,0,0,0,0,0,0,0,0,0,0,0,0,0,0,0,0,0,0,0,0,0,0,0,0,0,0,0,0,0,0,0,0,0,0,0,0,0,-0.0725,-0.0725,0,-0.0747,-0.0747,-0.0747,-0.076,-0.076,-0.076,-0.076,-0.0742,-0.0741,-0.0741,0,0,0,0,0,0,0,0,0,0,0,0,0,-0.0684,-0.0685,-0.0725,-0.0725,-0.0725,-0.0747,-0.0747,-0.0748,-0.076,-0.076,-0.076,-0.076,-0.0742,-0.0741,-0.0741,0,0,0,0,0,0,0,0,0,0,0,0,0,-0.0705,-0.0685,-0.0725,-0.0733,-0.0734,-0.0747,-0.0747,-0.0748,-0.076,-0.076,-0.076,-0.076,-0.0742,-0.0741,-0.0741,-0.074,0,0,-0.0739,-0.0739,0,0,0,0,0,0,0,0,-0.0704,-0.0707,-0.0732,-0.0732,-0.0733,-0.0749,-0.0726,-0.0743,-0.076,-0.0752,-0.076,-0.076,-0.0739,-0.0739,-0.0746,-0.074,-0.0739,-0.0739,-0.0739,-0.0738,-0.0738,0,0,0,0,0,0,0,-0.0702,-0.0706,-0.0735,-0.0732,-0.0733,-0.0732,-0.0735,-0.0729,-0.0747,-0.0753,-0.0753,-0.0753,-0.074,-0.0747,-0.0746,-0.0738,-0.0739,-0.0739,-0.0738,-0.0738,-0.0763,-0.0764,0,0,0,0,0,0,-0.0697,-0.0705,-0.0735,-0.0736,-0.0716,-0.0732,-0.0736,-0.0746,-0.0748,-0.0748,-0.0753,-0.0753,-0.0748,-0.0747,-0.0745,-0.0773,-0.0738,-0.0738,-0.0738,-0.0762,-0.0763,-0.0764,0,0,0,0,0,0,-0.0696,-0.07,-0.0734,-0.0719,-0.0723,-0.0733,-0.0744,-0.0746,-0.0765,-0.0748,-0.0748,-0.0771,-0.0748,-0.0746,-0.0754,-0.0771,-0.0738,-0.0737,-0.0761,-0.0762,-0.0764,-0.0809,0,0,0,0,0,0,-0.0695,-0.07,-0.0714,-0.0719,-0.0723,-0.0749,-0.0744,-0.0746,-0.0763,-0.0764,-0.0763,-0.076,-0.0748,-0.0755,-0.0753,-0.0769,-0.0737,-0.076,-0.0762,-0.0763,-0.0806,-0.0812,-0.0817,0,0,0,0,0,-0.0694,-0.0712,-0.0715,-0.0718,-0.074,-0.0749,-0.0752,-0.0759,-0.0764,-0.0776,-0.0777,-0.0761,-0.0766,-0.0755,-0.0753,-0.0769,-0.0759,-0.0761,-0.0763,-0.0804,-0.0811,-0.0817,0,0,0,0,0,0,-0.0703,-0.0715,-0.0718,-0.074,-0.0746,-0.0751,-0.0765,-0.0769,-0.0781,-0.0785,-0.0772,-0.077,-0.0786,-0.0772,-0.0761,-0.0783,-0.0761,-0.0762,-0.0792,-0.0799,-0.0804,-0.0789,-0.0736,0,0,0,0,0,-0.071,-0.0728,-0.0733,-0.0752,-0.0757,-0.0764,-0.0773,-0.0776,-0.0782,-0.0789,-0.0788,-0.0788,-0.0793,-0.0791,-0.0792,-0.08,-0.0783,-0.081,-0.0816,-0.082,-0.0808,-0.0806,-0.081,-0.0772,-0.0772,-0.0772,0,0,-0.0718,-0.0728,-0.0738,-0.0755,-0.0763,-0.0774,-0.077,-0.0787,-0.0798,-0.0783,-0.0806,-0.0808,-0.0801,-0.0815,-0.082,-0.0805,-0.0825,-0.0823,-0.0827,-0.0811,-0.0809,-0.0812,-0.0815,-0.0773,-0.0773,-0.0773,0,0,-0.0735,-0.0753,-0.0769,-0.0776,-0.0788,-0.0793,-0.08,-0.0812,-0.0822,-0.084,-0.0836,-0.0845,-0.0854,-0.0848,-0.0847,-0.0879,-0.0857,-0.0888,-0.0896,-0.0896,-0.0899,-0.0901,-0.0895,-0.0896,-0.0886,-0.0886,-0.0886,0,-0.0744,-0.0766,-0.0775,-0.0787,-0.0794,-0.0803,-0.0815,-0.0827,-0.0841,-0.0843,-0.0853,-0.0869,-0.0867,-0.0872,-0.0887,-0.089,-0.0885,-0.0873,-0.0902,-0.0903,-0.0905,-0.0898,-0.0898,-0.0888,-0.0888,-0.0888,-0.0888,0,-0.0761,-0.0785,-0.0796,-0.0815,-0.0823,-0.0839,-0.0846,-0.0861,-0.0877,-0.0881,-0.0901,-0.0905,-0.0907,-0.0919,-0.0914,-0.0924,-0.0917,-0.0913,-0.0883,-0.0911,-0.0902,-0.0902,-0.0892,-0.0891,-0.089,-0.089,0,0,-0.0772,-0.0802,-0.081,-0.0823,-0.084,-0.0849,-0.0866,-0.0878,-0.0887,-0.0908,-0.0919,-0.0937,-0.0937,-0.0935,-0.0935,-0.0935,-0.0951,-0.093,-0.0929,-0.0919,-0.0949,-0.0861,-0.0852,-0.0955,-0.0955,-0.0955,-0.0943,0,-0.0786,-0.0819,-0.0826,-0.0857,-0.0874,-0.0878,-0.089,-0.0898,-0.0911,-0.0923,-0.0929,-0.0945,-0.0944,-0.0954,-0.0955,-0.0955,-0.095,-0.0954,-0.0926,-0.0925,-0.0839,-0.0848,-0.0956,-0.0942,-0.0942,-0.0942,-0.0942,0,-0.0799,-0.0822,-0.0856,-0.0879,-0.0885,-0.0902,-0.0916,-0.0928,-0.0934,-0.094,-0.0947,-0.0952,-0.096,-0.0961,-0.0959,-0.0964,-0.0955,-0.0951,-0.095,-0.0845,-0.0835,-0.0906,-0.0941,-0.0941,-0.0941,-0.0942,-0.0942,0,-0.0804,-0.0842,-0.0873,-0.0882,-0.0907,-0.0919,-0.0933,-0.0937,-0.0946,-0.0955,-0.0959,-0.0964,-0.0977,-0.097,-0.0955,-0.0966,-0.0943,-0.0958,-0.0864,-0.0859,-0.0923,-0.092,-0.0943,-0.0943,-0.0943,-0.0943,-0.0943,0,-0.0812,-0.0839,-0.0884,-0.09,-0.0929,-0.0938,-0.0963,-0.0964,-0.0973,-0.0973,-0.0974,-0.0968,-0.0981,-0.0966,-0.0954,-0.0895,-0.094,-0.0854,-0.0844,-0.0944,-0.0945,-0.0923,-0.0921,-0.0943,-0.0943,-0.0943,-0.0943,0,-0.0806,-0.084,-0.0876,-0.0917,-0.0935,-0.0955,-0.0987,-0.0992,-0.0999,-0.1,-0.1004,-0.0988,-0.0954,-0.0938,-0.0922,-0.0884,-0.0845,-0.0809,-0.0906,-0.0904,-0.0768,-0.0768,-0.0718,-0.0715,-0.0712,-0.071,-0.0708,0,-0.0802,-0.0825,-0.0888,-0.091,-0.0934,-0.0972,-0.0987,-0.1007,-0.1004,-0.0997,-0.0984,-0.096,-0.0937,-0.0843,-0.0829,-0.0773,-0.0759,-0.074,-0.076,-0.0746,-0.0742,-0.0747,-0.0752,-0.0703,-0.0702,-0.0702,-0.0701,0,-0.0786,-0.0819,-0.0844,-0.0896,-0.0929,-0.096,-0.0983,-0.0981,-0.0986,-0.1005,-0.0947,-0.09,-0.0844,-0.0799,-0.074,-0.0707,-0.0758,-0.0711,-0.0717,-0.0736,-0.0728,-0.0727,-0.0735,-0.0691,-0.0693,-0.0694,-0.0694,0,-0.0769,-0.0782,-0.0824,-0.0861,-0.0906,-0.0922,-0.0945,-0.0934,-0.0938,-0.0927,-0.0909,-0.0861,-0.0858,-0.0761,-0.0712,-0.0658,-0.0654,-0.0648,-0.0658,-0.0668,-0.0647,-0.0629,-0.0541,0,0,0,0,0,-0.0745,-0.0752,-0.0784,-0.0823,-0.0866,-0.0898,-0.0921,-0.0935,-0.095,-0.0898,-0.0901,-0.084,-0.0747,-0.0718,-0.0645,-0.0663,-0.0648,-0.0575,-0.0647,-0.0637,-0.0648,-0.0622,0,0,0,0,0,0,-0.0724,-0.0749,-0.0765,-0.0786,-0.0811,-0.0851,-0.0869,-0.0881,-0.0848,-0.086,-0.0812,-0.0812,-0.0727,-0.0792,-0.0643,-0.0629,-0.0658,-0.0548,-0.0546,-0.063,-0.064,-0.065,-0.0627,0,0,0,0,0]}]]